Time,TemperatureF,DewpointF,PressureIn,WindDirection,WindDirectionDegrees,WindSpeedMPH,WindSpeedGustMPH,Humidity,HourlyPrecipIn,Conditions,Clouds,dailyrainin,SoftwareType,DateUTC
2013-10-21 00:00:00,46.1,39.0,30.04,South,184,0.0,0.0,76,0.00,,CLR,0.00,VWS V14.01,2013-10-21 04:00:00,
2013-10-21 00:01:00,44.1,38.7,30.02,South,184,0.0,0.0,81,0.00,,CLR,0.00,VWS V14.01,2013-10-21 04:01:00,
2013-10-21 00:02:00,44.1,38.7,30.02,South,184,0.0,0.0,81,0.00,,CLR,0.00,VWS V14.01,2013-10-21 04:02:00,
2013-10-21 00:07:00,43.8,38.4,30.02,South,184,0.0,0.0,81,0.00,,CLR,0.00,VWS V14.01,2013-10-21 04:07:00,
2013-10-21 00:12:00,43.8,38.4,30.02,South,184,0.0,0.0,81,0.00,,CLR,0.00,VWS V14.01,2013-10-21 04:12:00,
2013-10-21 00:15:00,46.1,39.3,30.03,South,184,0.0,0.0,77,0.00,,CLR,0.00,VWS V14.01,2013-10-21 04:15:00,
2013-10-21 00:17:00,43.8,38.4,30.02,South,184,0.0,0.0,81,0.00,,CLR,0.00,VWS V14.01,2013-10-21 04:17:00,
2013-10-21 00:22:00,43.6,38.2,30.02,South,184,0.0,0.0,81,0.00,,CLR,0.00,VWS V14.01,2013-10-21 04:22:00,
2013-10-21 00:27:00,43.6,38.5,30.02,South,184,0.0,0.0,82,0.00,,CLR,0.00,VWS V14.01,2013-10-21 04:27:00,
2013-10-21 00:30:00,45.5,39.0,30.03,South,184,0.0,0.0,78,0.00,,CLR,0.00,VWS V14.01,2013-10-21 04:30:00,
2013-10-21 00:32:00,43.6,38.5,30.02,South,184,0.0,0.0,82,0.00,,CLR,0.00,VWS V14.01,2013-10-21 04:32:00,
2013-10-21 00:37:00,43.9,38.5,30.02,South,184,0.0,3.0,81,0.00,,CLR,0.00,VWS V14.01,2013-10-21 04:37:00,
2013-10-21 00:42:00,44.3,38.5,30.02,South,184,0.0,3.0,80,0.00,,CLR,0.00,VWS V14.01,2013-10-21 04:42:00,
2013-10-21 00:45:00,44.8,38.7,30.03,South,184,0.0,0.0,79,0.00,,CLR,0.00,VWS V14.01,2013-10-21 04:45:00,
2013-10-21 00:47:00,44.6,38.5,30.02,South,184,0.0,0.0,79,0.00,,CLR,0.00,VWS V14.01,2013-10-21 04:47:00,
2013-10-21 00:52:00,44.9,38.5,30.02,South,184,2.0,2.0,78,0.00,,CLR,0.00,VWS V14.01,2013-10-21 04:52:00,
2013-10-21 00:57:00,45.2,38.4,30.02,South,191,0.0,2.0,77,0.00,,CLR,0.00,VWS V14.01,2013-10-21 04:57:00,
2013-10-21 01:00:00,44.1,38.7,30.02,South,184,0.0,0.0,81,0.00,,CLR,0.00,VWS V14.01,2013-10-21 05:00:00,
2013-10-21 01:02:00,45.4,38.6,30.01,South,189,2.0,2.0,77,0.00,,CLR,0.00,VWS V14.01,2013-10-21 05:02:00,
2013-10-21 01:07:00,45.4,38.3,30.01,South,189,0.0,2.0,76,0.00,,CLR,0.00,VWS V14.01,2013-10-21 05:07:00,
2013-10-21 01:12:00,45.2,38.4,30.01,South,189,1.0,2.0,77,0.00,,CLR,0.00,VWS V14.01,2013-10-21 05:12:00,
2013-10-21 01:15:00,43.8,38.4,30.02,South,184,0.0,0.0,81,0.00,,CLR,0.00,VWS V14.01,2013-10-21 05:15:00,
2013-10-21 01:17:00,45.2,38.1,30.01,South,189,0.0,2.0,76,0.00,,CLR,0.00,VWS V14.01,2013-10-21 05:17:00,
2013-10-21 01:22:00,45.2,38.1,30.01,South,189,0.0,1.0,76,0.00,,CLR,0.00,VWS V14.01,2013-10-21 05:22:00,
2013-10-21 01:27:00,45.2,38.1,30.01,South,189,0.0,0.0,76,0.00,,CLR,0.00,VWS V14.01,2013-10-21 05:27:00,
2013-10-21 01:30:00,43.6,38.5,30.02,South,184,0.0,0.0,82,0.00,,CLR,0.00,VWS V14.01,2013-10-21 05:30:00,
2013-10-21 01:32:00,45.2,38.1,30.01,South,189,0.0,0.0,76,0.00,,CLR,0.00,VWS V14.01,2013-10-21 05:32:00,
2013-10-21 01:37:00,45.1,38.0,30.01,South,189,0.0,0.0,76,0.00,,CLR,0.00,VWS V14.01,2013-10-21 05:37:00,
2013-10-21 01:42:00,45.1,38.0,30.01,South,189,0.0,0.0,76,0.00,,CLR,0.00,VWS V14.01,2013-10-21 05:42:00,
2013-10-21 01:45:00,44.5,38.4,30.02,South,184,0.0,0.0,79,0.00,,CLR,0.00,VWS V14.01,2013-10-21 05:45:00,
2013-10-21 01:47:00,44.9,38.1,30.01,South,189,0.0,0.0,77,0.00,,CLR,0.00,VWS V14.01,2013-10-21 05:47:00,
2013-10-21 01:52:00,44.8,38.0,30.01,South,189,0.0,0.0,77,0.00,,CLR,0.00,VWS V14.01,2013-10-21 05:52:00,
2013-10-21 01:57:00,44.6,37.8,30.01,South,189,0.0,0.0,77,0.00,,CLR,0.00,VWS V14.01,2013-10-21 05:57:00,
2013-10-21 02:00:00,45.2,38.4,30.01,South,189,0.0,2.0,77,0.00,,CLR,0.00,VWS V14.01,2013-10-21 06:00:00,
2013-10-21 02:02:00,44.5,38.1,30.01,South,189,0.0,0.0,78,0.00,,CLR,0.00,VWS V14.01,2013-10-21 06:02:00,
2013-10-21 02:07:00,44.3,37.9,30.01,South,189,0.0,0.0,78,0.00,,CLR,0.00,VWS V14.01,2013-10-21 06:07:00,
2013-10-21 02:12:00,44.2,37.8,30.01,South,189,0.0,0.0,78,0.00,,CLR,0.00,VWS V14.01,2013-10-21 06:12:00,
2013-10-21 02:15:00,45.2,38.4,30.01,South,189,0.0,2.0,77,0.00,,CLR,0.00,VWS V14.01,2013-10-21 06:15:00,
2013-10-21 02:17:00,44.1,38.0,30.01,South,189,0.0,0.0,79,0.00,,CLR,0.00,VWS V14.01,2013-10-21 06:17:00,
2013-10-21 02:22:00,43.8,37.7,30.01,South,189,0.0,0.0,79,0.00,,CLR,0.00,VWS V14.01,2013-10-21 06:22:00,
2013-10-21 02:27:00,43.5,37.4,30.01,South,189,0.0,0.0,79,0.00,,CLR,0.00,VWS V14.01,2013-10-21 06:27:00,
2013-10-21 02:30:00,45.2,38.1,30.01,South,189,0.0,0.0,76,0.00,,CLR,0.00,VWS V14.01,2013-10-21 06:30:00,
2013-10-21 02:32:00,43.2,37.5,30.01,South,189,0.0,0.0,80,0.00,,CLR,0.00,VWS V14.01,2013-10-21 06:32:00,
2013-10-21 02:37:00,42.9,37.5,30.01,South,189,0.0,0.0,81,0.00,,CLR,0.00,VWS V14.01,2013-10-21 06:37:00,
2013-10-21 02:42:00,42.8,37.4,30.01,South,189,0.0,0.0,81,0.00,,CLR,0.00,VWS V14.01,2013-10-21 06:42:00,
2013-10-21 02:45:00,44.9,38.1,30.01,South,189,0.0,0.0,77,0.00,,CLR,0.00,VWS V14.01,2013-10-21 06:45:00,
2013-10-21 02:47:00,42.5,37.1,30.01,South,189,0.0,0.0,81,0.00,,CLR,0.00,VWS V14.01,2013-10-21 06:47:00,
2013-10-21 02:52:00,42.3,37.2,30.01,South,189,0.0,0.0,82,0.00,,CLR,0.00,VWS V14.01,2013-10-21 06:52:00,
2013-10-21 02:57:00,42.2,37.1,30.01,South,189,0.0,0.0,82,0.00,,CLR,0.00,VWS V14.01,2013-10-21 06:57:00,
2013-10-21 03:00:00,44.5,37.8,30.01,South,189,0.0,0.0,77,0.00,,CLR,0.00,VWS V14.01,2013-10-21 07:00:00,
2013-10-21 03:02:00,42.1,37.3,30.02,South,189,0.0,0.0,83,0.00,,CLR,0.00,VWS V14.01,2013-10-21 07:02:00,
2013-10-21 03:07:00,41.8,37.0,30.02,South,189,0.0,0.0,83,0.00,,CLR,0.00,VWS V14.01,2013-10-21 07:07:00,
2013-10-21 03:12:00,41.6,37.1,30.02,South,189,0.0,0.0,84,0.00,,CLR,0.00,VWS V14.01,2013-10-21 07:12:00,
2013-10-21 03:15:00,44.1,37.7,30.01,South,189,0.0,0.0,78,0.00,,CLR,0.00,VWS V14.01,2013-10-21 07:15:00,
2013-10-21 03:17:00,41.5,37.0,30.02,South,189,0.0,0.0,84,0.00,,CLR,0.00,VWS V14.01,2013-10-21 07:17:00,
2013-10-21 03:22:00,41.3,36.8,30.02,South,189,0.0,0.0,84,0.00,,CLR,0.00,VWS V14.01,2013-10-21 07:22:00,
2013-10-21 03:27:00,41.2,37.0,30.02,South,189,0.0,0.0,85,0.00,,CLR,0.00,VWS V14.01,2013-10-21 07:27:00,
2013-10-21 03:30:00,43.3,37.6,30.01,South,189,0.0,0.0,80,0.00,,CLR,0.00,VWS V14.01,2013-10-21 07:30:00,
2013-10-21 03:32:00,41.2,37.0,30.02,South,189,0.0,0.0,85,0.00,,CLR,0.00,VWS V14.01,2013-10-21 07:32:00,
2013-10-21 03:37:00,41.1,36.9,30.02,South,189,0.0,0.0,85,0.00,,CLR,0.00,VWS V14.01,2013-10-21 07:37:00,
2013-10-21 03:42:00,40.8,36.7,30.02,South,189,0.0,0.0,85,0.00,,CLR,0.00,VWS V14.01,2013-10-21 07:42:00,
2013-10-21 03:45:00,42.6,37.2,30.01,South,189,0.0,0.0,81,0.00,,CLR,0.00,VWS V14.01,2013-10-21 07:45:00,
2013-10-21 03:47:00,40.6,36.5,30.02,South,189,0.0,0.0,85,0.00,,CLR,0.00,VWS V14.01,2013-10-21 07:47:00,
2013-10-21 03:52:00,40.3,36.2,30.02,South,189,0.0,0.0,85,0.00,,CLR,0.00,VWS V14.01,2013-10-21 07:52:00,
2013-10-21 03:57:00,40.1,36.0,30.02,South,189,0.0,0.0,85,0.00,,CLR,0.00,VWS V14.01,2013-10-21 07:57:00,
2013-10-21 04:00:00,42.1,37.0,30.02,South,189,0.0,0.0,82,0.00,,CLR,0.00,VWS V14.01,2013-10-21 08:00:00,
2013-10-21 04:02:00,39.9,36.1,30.03,South,189,0.0,0.0,86,0.00,,CLR,0.00,VWS V14.01,2013-10-21 08:02:00,
2013-10-21 04:07:00,39.6,36.1,30.03,South,189,0.0,0.0,87,0.00,,CLR,0.00,VWS V14.01,2013-10-21 08:07:00,
2013-10-21 04:12:00,39.5,36.0,30.03,South,189,0.0,0.0,87,0.00,,CLR,0.00,VWS V14.01,2013-10-21 08:12:00,
2013-10-21 04:15:00,41.5,37.0,30.02,South,189,0.0,0.0,84,0.00,,CLR,0.00,VWS V14.01,2013-10-21 08:15:00,
2013-10-21 04:17:00,39.2,35.7,30.02,South,189,0.0,0.0,87,0.00,,CLR,0.00,VWS V14.01,2013-10-21 08:17:00,
2013-10-21 04:22:00,39.1,35.6,30.02,South,189,0.0,0.0,87,0.00,,CLR,0.00,VWS V14.01,2013-10-21 08:22:00,
2013-10-21 04:27:00,38.8,35.3,30.02,South,189,0.0,0.0,87,0.00,,CLR,0.00,VWS V14.01,2013-10-21 08:27:00,
2013-10-21 04:30:00,41.2,37.0,30.02,South,189,0.0,0.0,85,0.00,,CLR,0.00,VWS V14.01,2013-10-21 08:30:00,
2013-10-21 04:32:00,38.6,35.1,30.02,South,189,0.0,0.0,87,0.00,,CLR,0.00,VWS V14.01,2013-10-21 08:32:00,
2013-10-21 04:37:00,38.3,35.1,30.02,South,189,0.0,0.0,88,0.00,,CLR,0.00,VWS V14.01,2013-10-21 08:37:00,
2013-10-21 04:42:00,38.2,35.0,30.02,South,189,0.0,0.0,88,0.00,,CLR,0.00,VWS V14.01,2013-10-21 08:42:00,
2013-10-21 04:45:00,40.6,36.5,30.02,South,189,0.0,0.0,85,0.00,,CLR,0.00,VWS V14.01,2013-10-21 08:45:00,
2013-10-21 04:47:00,38.0,34.8,30.03,South,189,0.0,0.0,88,0.00,,CLR,0.00,VWS V14.01,2013-10-21 08:47:00,
2013-10-21 04:52:00,37.9,34.7,30.03,South,189,0.0,0.0,88,0.00,,CLR,0.00,VWS V14.01,2013-10-21 08:52:00,
2013-10-21 04:57:00,37.8,34.9,30.03,South,189,0.0,0.0,89,0.00,,CLR,0.00,VWS V14.01,2013-10-21 08:57:00,
2013-10-21 05:00:00,39.9,36.1,30.03,South,189,0.0,0.0,86,0.00,,CLR,0.00,VWS V14.01,2013-10-21 09:00:00,
2013-10-21 05:02:00,37.6,34.7,30.03,South,189,0.0,0.0,89,0.00,,CLR,0.00,VWS V14.01,2013-10-21 09:02:00,
2013-10-21 05:07:00,37.3,34.4,30.03,South,189,0.0,0.0,89,0.00,,CLR,0.00,VWS V14.01,2013-10-21 09:07:00,
2013-10-21 05:12:00,37.3,34.6,30.03,South,189,0.0,0.0,90,0.00,,CLR,0.00,VWS V14.01,2013-10-21 09:12:00,
2013-10-21 05:15:00,39.3,35.8,30.02,South,189,0.0,0.0,87,0.00,,CLR,0.00,VWS V14.01,2013-10-21 09:15:00,
2013-10-21 05:17:00,37.3,34.6,30.04,South,189,0.0,0.0,90,0.00,,CLR,0.00,VWS V14.01,2013-10-21 09:17:00,
2013-10-21 05:22:00,37.3,34.6,30.04,South,189,0.0,0.0,90,0.00,,CLR,0.00,VWS V14.01,2013-10-21 09:22:00,
2013-10-21 05:27:00,37.3,34.6,30.04,South,189,0.0,0.0,90,0.00,,CLR,0.00,VWS V14.01,2013-10-21 09:27:00,
2013-10-21 05:30:00,38.6,35.1,30.02,South,189,0.0,0.0,87,0.00,,CLR,0.00,VWS V14.01,2013-10-21 09:30:00,
2013-10-21 05:32:00,37.3,34.6,30.04,South,189,0.0,0.0,90,0.00,,CLR,0.00,VWS V14.01,2013-10-21 09:32:00,
2013-10-21 05:37:00,37.2,34.5,30.04,South,189,0.0,0.0,90,0.00,,CLR,0.00,VWS V14.01,2013-10-21 09:37:00,
2013-10-21 05:42:00,37.2,34.8,30.04,South,189,0.0,0.0,91,0.00,,CLR,0.00,VWS V14.01,2013-10-21 09:42:00,
2013-10-21 05:45:00,38.2,35.0,30.03,South,189,0.0,0.0,88,0.00,,CLR,0.00,VWS V14.01,2013-10-21 09:45:00,
2013-10-21 05:47:00,37.3,34.9,30.04,South,189,0.0,0.0,91,0.00,,CLR,0.00,VWS V14.01,2013-10-21 09:47:00,
2013-10-21 05:52:00,37.3,34.9,30.04,South,189,0.0,0.0,91,0.00,,CLR,0.00,VWS V14.01,2013-10-21 09:52:00,
2013-10-21 05:57:00,37.3,35.2,30.04,South,189,0.0,0.0,92,0.00,,CLR,0.00,VWS V14.01,2013-10-21 09:57:00,
2013-10-21 06:00:00,37.6,34.7,30.03,South,189,0.0,0.0,89,0.00,,CLR,0.00,VWS V14.01,2013-10-21 10:00:00,
2013-10-21 06:02:00,37.3,34.9,30.04,South,189,0.0,0.0,91,0.00,,CLR,0.00,VWS V14.01,2013-10-21 10:02:00,
2013-10-21 06:07:00,37.2,35.1,30.04,South,189,0.0,0.0,92,0.00,,CLR,0.00,VWS V14.01,2013-10-21 10:07:00,
2013-10-21 06:12:00,37.0,34.9,30.04,South,189,0.0,0.0,92,0.00,,CLR,0.00,VWS V14.01,2013-10-21 10:12:00,
2013-10-21 06:15:00,37.3,34.6,30.04,South,189,0.0,0.0,90,0.00,,CLR,0.00,VWS V14.01,2013-10-21 10:15:00,
2013-10-21 06:17:00,37.0,34.9,30.05,South,189,0.0,0.0,92,0.00,,CLR,0.00,VWS V14.01,2013-10-21 10:17:00,
2013-10-21 06:22:00,36.9,34.8,30.05,South,189,0.0,0.0,92,0.00,,CLR,0.00,VWS V14.01,2013-10-21 10:22:00,
2013-10-21 06:27:00,36.8,34.7,30.05,South,189,0.0,0.0,92,0.00,,CLR,0.00,VWS V14.01,2013-10-21 10:27:00,
2013-10-21 06:30:00,37.3,34.6,30.04,South,189,0.0,0.0,90,0.00,,CLR,0.00,VWS V14.01,2013-10-21 10:30:00,
2013-10-21 06:32:00,36.6,34.5,30.04,South,189,0.0,0.0,92,0.00,,CLR,0.00,VWS V14.01,2013-10-21 10:32:00,
2013-10-21 06:37:00,36.8,34.7,30.04,South,189,0.0,0.0,92,0.00,,CLR,0.00,VWS V14.01,2013-10-21 10:37:00,
2013-10-21 06:42:00,36.8,34.7,30.04,South,189,0.0,0.0,92,0.00,,CLR,0.00,VWS V14.01,2013-10-21 10:42:00,
2013-10-21 06:45:00,37.2,34.8,30.04,South,189,0.0,0.0,91,0.00,,CLR,0.00,VWS V14.01,2013-10-21 10:45:00,
2013-10-21 06:47:00,36.8,34.7,30.04,South,189,0.0,0.0,92,0.00,,CLR,0.00,VWS V14.01,2013-10-21 10:47:00,
2013-10-21 06:52:00,36.6,34.5,30.04,South,189,0.0,0.0,92,0.00,,CLR,0.00,VWS V14.01,2013-10-21 10:52:00,
2013-10-21 06:57:00,36.6,34.8,30.04,South,189,0.0,0.0,93,0.00,,CLR,0.00,VWS V14.01,2013-10-21 10:57:00,
2013-10-21 07:00:00,37.3,35.2,30.04,South,189,0.0,0.0,92,0.00,,CLR,0.00,VWS V14.01,2013-10-21 11:00:00,
2013-10-21 07:02:00,36.6,34.8,30.04,South,189,0.0,0.0,93,0.00,,CLR,0.00,VWS V14.01,2013-10-21 11:02:00,
2013-10-21 07:07:00,36.6,34.8,30.04,South,189,0.0,0.0,93,0.00,,CLR,0.00,VWS V14.01,2013-10-21 11:07:00,
2013-10-21 07:12:00,36.8,35.0,30.04,South,189,0.0,0.0,93,0.00,,CLR,0.00,VWS V14.01,2013-10-21 11:12:00,
2013-10-21 07:15:00,37.0,34.9,30.05,South,189,0.0,0.0,92,0.00,,CLR,0.00,VWS V14.01,2013-10-21 11:15:00,
2013-10-21 07:17:00,36.8,35.0,30.04,South,189,0.0,0.0,93,0.00,,CLR,0.00,VWS V14.01,2013-10-21 11:17:00,
2013-10-21 07:22:00,36.8,35.0,30.04,South,189,0.0,0.0,93,0.00,,CLR,0.00,VWS V14.01,2013-10-21 11:22:00,
2013-10-21 07:27:00,36.8,35.0,30.04,South,189,0.0,0.0,93,0.00,,CLR,0.00,VWS V14.01,2013-10-21 11:27:00,
2013-10-21 07:30:00,36.6,34.5,30.04,South,189,0.0,0.0,92,0.00,,CLR,0.00,VWS V14.01,2013-10-21 11:30:00,
2013-10-21 07:32:00,36.8,35.0,30.04,South,189,0.0,0.0,93,0.00,,CLR,0.00,VWS V14.01,2013-10-21 11:32:00,
2013-10-21 07:37:00,36.8,35.0,30.04,South,189,0.0,0.0,93,0.00,,CLR,0.00,VWS V14.01,2013-10-21 11:37:00,
2013-10-21 07:42:00,36.8,35.0,30.04,South,189,0.0,0.0,93,0.00,,CLR,0.00,VWS V14.01,2013-10-21 11:42:00,
2013-10-21 07:45:00,36.8,34.7,30.04,South,189,0.0,0.0,92,0.00,,CLR,0.00,VWS V14.01,2013-10-21 11:45:00,
2013-10-21 07:47:00,37.0,35.2,30.03,South,189,0.0,0.0,93,0.00,,CLR,0.00,VWS V14.01,2013-10-21 11:47:00,
2013-10-21 07:52:00,37.2,35.4,30.03,South,189,0.0,0.0,93,0.00,,CLR,0.00,VWS V14.01,2013-10-21 11:52:00,
2013-10-21 07:57:00,37.3,35.7,30.03,South,189,0.0,0.0,94,0.00,,CLR,0.00,VWS V14.01,2013-10-21 11:57:00,
2013-10-21 08:00:00,36.6,34.8,30.04,South,189,0.0,0.0,93,0.00,,CLR,0.00,VWS V14.01,2013-10-21 12:00:00,
2013-10-21 08:02:00,37.5,35.9,30.04,South,189,0.0,0.0,94,0.00,,CLR,0.00,VWS V14.01,2013-10-21 12:02:00,
2013-10-21 08:07:00,37.6,36.0,30.04,South,189,0.0,0.0,94,0.00,,CLR,0.00,VWS V14.01,2013-10-21 12:07:00,
2013-10-21 08:12:00,37.8,36.2,30.04,South,189,0.0,0.0,94,0.00,,CLR,0.00,VWS V14.01,2013-10-21 12:12:00,
2013-10-21 08:15:00,36.8,35.0,30.04,South,189,0.0,0.0,93,0.00,,CLR,0.00,VWS V14.01,2013-10-21 12:15:00,
2013-10-21 08:17:00,37.9,36.3,30.04,South,189,0.0,0.0,94,0.00,,CLR,0.00,VWS V14.01,2013-10-21 12:17:00,
2013-10-21 08:22:00,38.3,36.7,30.04,South,189,0.0,0.0,94,0.00,,CLR,0.00,VWS V14.01,2013-10-21 12:22:00,
2013-10-21 08:27:00,38.6,37.0,30.04,South,189,0.0,0.0,94,0.00,,CLR,0.00,VWS V14.01,2013-10-21 12:27:00,
2013-10-21 08:30:00,36.8,35.0,30.04,South,189,0.0,0.0,93,0.00,,CLR,0.00,VWS V14.01,2013-10-21 12:30:00,
2013-10-21 08:32:00,39.2,37.6,30.04,South,189,0.0,0.0,94,0.00,,CLR,0.00,VWS V14.01,2013-10-21 12:32:00,
2013-10-21 08:37:00,39.6,37.8,30.04,South,189,0.0,1.0,93,0.00,,CLR,0.00,VWS V14.01,2013-10-21 12:37:00,
2013-10-21 08:42:00,40.1,38.2,30.04,South,189,0.0,1.0,93,0.00,,CLR,0.00,VWS V14.01,2013-10-21 12:42:00,
2013-10-21 08:45:00,36.9,35.1,30.03,South,189,0.0,0.0,93,0.00,,CLR,0.00,VWS V14.01,2013-10-21 12:45:00,
2013-10-21 08:47:00,40.6,38.7,30.05,South,189,0.0,1.0,93,0.00,,CLR,0.00,VWS V14.01,2013-10-21 12:47:00,
2013-10-21 08:52:00,41.3,39.2,30.05,South,189,0.0,0.0,92,0.00,,CLR,0.00,VWS V14.01,2013-10-21 12:52:00,
2013-10-21 08:57:00,42.2,39.8,30.05,South,189,0.0,0.0,91,0.00,,CLR,0.00,VWS V14.01,2013-10-21 12:57:00,
2013-10-21 09:00:00,37.3,35.7,30.04,South,189,0.0,0.0,94,0.00,,CLR,0.00,VWS V14.01,2013-10-21 13:00:00,
2013-10-21 09:02:00,43.1,39.8,30.05,South,189,0.0,0.0,88,0.00,,CLR,0.00,VWS V14.01,2013-10-21 13:02:00,
2013-10-21 09:07:00,43.9,39.7,30.05,South,189,0.0,0.0,85,0.00,,CLR,0.00,VWS V14.01,2013-10-21 13:07:00,
2013-10-21 09:12:00,44.6,40.1,30.05,South,189,2.0,2.0,84,0.00,,CLR,0.00,VWS V14.01,2013-10-21 13:12:00,
2013-10-21 09:15:00,37.8,36.2,30.04,South,189,0.0,0.0,94,0.00,,CLR,0.00,VWS V14.01,2013-10-21 13:15:00,
2013-10-21 09:17:00,45.4,39.9,30.05,South,189,0.0,2.0,81,0.00,,CLR,0.00,VWS V14.01,2013-10-21 13:17:00,
2013-10-21 09:22:00,46.1,39.6,30.05,South,189,0.0,2.0,78,0.00,,CLR,0.00,VWS V14.01,2013-10-21 13:22:00,
2013-10-21 09:27:00,46.8,40.6,30.05,South,189,0.0,2.0,79,0.00,,CLR,0.00,VWS V14.01,2013-10-21 13:27:00,
2013-10-21 09:30:00,39.1,37.5,30.04,South,189,0.0,0.0,94,0.00,,CLR,0.00,VWS V14.01,2013-10-21 13:30:00,
2013-10-21 09:32:00,47.1,39.9,30.04,South,189,0.0,0.0,76,0.00,,CLR,0.00,VWS V14.01,2013-10-21 13:32:00,
2013-10-21 09:37:00,47.7,40.2,30.04,SSW,196,0.0,1.0,75,0.00,,CLR,0.00,VWS V14.01,2013-10-21 13:37:00,
2013-10-21 09:42:00,48.3,40.8,30.04,SSW,196,0.0,0.0,75,0.00,,CLR,0.00,VWS V14.01,2013-10-21 13:42:00,
2013-10-21 09:45:00,40.3,38.4,30.05,South,189,0.0,1.0,93,0.00,,CLR,0.00,VWS V14.01,2013-10-21 13:45:00,
2013-10-21 09:47:00,48.6,40.3,30.04,SSW,196,0.0,0.0,73,0.00,,CLR,0.00,VWS V14.01,2013-10-21 13:47:00,
2013-10-21 09:52:00,49.2,41.6,30.04,SSW,195,0.0,0.0,75,0.00,,CLR,0.00,VWS V14.01,2013-10-21 13:52:00,
2013-10-21 09:57:00,49.8,41.5,30.04,SSW,195,0.0,0.0,73,0.00,,CLR,0.00,VWS V14.01,2013-10-21 13:57:00,
2013-10-21 10:00:00,42.8,40.1,30.05,South,189,0.0,0.0,90,0.00,,CLR,0.00,VWS V14.01,2013-10-21 14:00:00,
2013-10-21 10:02:00,50.5,41.5,30.04,SSW,193,0.0,0.0,71,0.00,,CLR,0.00,VWS V14.01,2013-10-21 14:02:00,
2013-10-21 10:07:00,51.0,42.3,30.04,SSW,193,0.0,0.0,72,0.00,,CLR,0.00,VWS V14.01,2013-10-21 14:07:00,
2013-10-21 10:12:00,51.4,42.3,30.04,SSW,193,0.0,0.0,71,0.00,,CLR,0.00,VWS V14.01,2013-10-21 14:12:00,
2013-10-21 10:15:00,45.1,39.9,30.05,South,189,0.0,2.0,82,0.00,,CLR,0.00,VWS V14.01,2013-10-21 14:15:00,
2013-10-21 10:17:00,51.9,42.1,30.03,SSW,193,0.0,0.0,69,0.00,,CLR,0.00,VWS V14.01,2013-10-21 14:17:00,
2013-10-21 10:22:00,52.5,42.6,30.03,SSW,193,0.0,0.0,69,0.00,,CLR,0.00,VWS V14.01,2013-10-21 14:22:00,
2013-10-21 10:27:00,53.2,43.3,30.03,SSW,193,0.0,1.0,69,0.00,,CLR,0.00,VWS V14.01,2013-10-21 14:27:00,
2013-10-21 10:30:00,47.0,39.8,30.04,South,189,0.0,0.0,76,0.00,,CLR,0.00,VWS V14.01,2013-10-21 14:30:00,
2013-10-21 10:32:00,54.5,43.8,30.03,SSW,193,0.0,2.0,67,0.00,,CLR,0.00,VWS V14.01,2013-10-21 14:32:00,
2013-10-21 10:37:00,55.4,43.0,30.03,SSW,200,13.0,16.0,63,0.00,,CLR,0.00,VWS V14.01,2013-10-21 14:37:00,
2013-10-21 10:42:00,55.9,41.8,30.03,SSW,195,2.0,16.0,59,0.00,,CLR,0.00,VWS V14.01,2013-10-21 14:42:00,
2013-10-21 10:45:00,48.6,40.7,30.04,SSW,196,0.0,0.0,74,0.00,,CLR,0.00,VWS V14.01,2013-10-21 14:45:00,
2013-10-21 10:47:00,56.2,41.2,30.02,SSW,213,1.0,15.0,57,0.00,,CLR,0.00,VWS V14.01,2013-10-21 14:47:00,
2013-10-21 10:52:00,56.6,41.1,30.02,SSW,206,2.0,15.0,56,0.00,,CLR,0.00,VWS V14.01,2013-10-21 14:52:00,
2013-10-21 10:57:00,57.0,41.5,30.02,SSW,212,0.0,13.0,56,0.00,,CLR,0.00,VWS V14.01,2013-10-21 14:57:00,
2013-10-21 11:00:00,50.4,42.1,30.04,SSW,193,0.0,0.0,73,0.00,,CLR,0.00,VWS V14.01,2013-10-21 15:00:00,
2013-10-21 11:02:00,57.3,41.8,30.02,WSW,251,3.0,11.0,56,0.00,,CLR,0.00,VWS V14.01,2013-10-21 15:02:00,
2013-10-21 11:07:00,57.5,41.9,30.02,SW,226,6.0,11.0,56,0.00,,CLR,0.00,VWS V14.01,2013-10-21 15:07:00,
2013-10-21 11:12:00,57.8,41.8,30.02,South,191,6.0,17.0,55,0.00,,CLR,0.00,VWS V14.01,2013-10-21 15:12:00,
2013-10-21 11:15:00,51.7,41.9,30.03,SSW,193,0.0,0.0,69,0.00,,CLR,0.00,VWS V14.01,2013-10-21 15:15:00,
2013-10-21 11:17:00,58.1,42.5,30.02,West,260,0.0,17.0,56,0.00,,CLR,0.00,VWS V14.01,2013-10-21 15:17:00,
2013-10-21 11:22:00,58.6,42.5,30.02,SSW,203,9.0,16.0,55,0.00,,CLR,0.00,VWS V14.01,2013-10-21 15:22:00,
2013-10-21 11:27:00,58.7,42.1,30.02,West,267,5.0,18.0,54,0.00,,CLR,0.00,VWS V14.01,2013-10-21 15:27:00,
2013-10-21 11:30:00,54.1,44.2,30.03,SSW,193,0.0,1.0,69,0.00,,CLR,0.00,VWS V14.01,2013-10-21 15:30:00,
2013-10-21 11:32:00,58.9,42.8,30.01,SSW,213,13.0,18.0,55,0.00,,CLR,0.00,VWS V14.01,2013-10-21 15:32:00,
2013-10-21 11:37:00,59.0,41.9,30.01,SSW,195,4.0,13.0,53,0.00,,CLR,0.00,VWS V14.01,2013-10-21 15:37:00,
2013-10-21 11:42:00,59.3,42.7,30.01,SSW,202,8.0,14.0,54,0.00,,CLR,0.00,VWS V14.01,2013-10-21 15:42:00,
2013-10-21 11:45:00,56.2,41.2,30.02,SSW,213,6.0,16.0,57,0.00,,CLR,0.00,VWS V14.01,2013-10-21 15:45:00,
2013-10-21 11:47:00,59.6,42.0,30.00,WSW,237,3.0,14.0,52,0.00,,CLR,0.00,VWS V14.01,2013-10-21 15:47:00,
2013-10-21 11:52:00,59.9,43.2,30.00,SSW,203,3.0,14.0,54,0.00,,CLR,0.00,VWS V14.01,2013-10-21 15:52:00,
2013-10-21 11:57:00,60.1,42.4,30.00,SW,215,15.0,16.0,52,0.00,,CLR,0.00,VWS V14.01,2013-10-21 15:57:00,
2013-10-21 12:00:00,57.2,41.7,30.02,SSW,208,6.0,11.0,56,0.00,,CLR,0.00,VWS V14.01,2013-10-21 16:00:00,
2013-10-21 12:02:00,60.1,42.9,30.00,West,264,7.0,16.0,53,0.00,,CLR,0.00,VWS V14.01,2013-10-21 16:02:00,
2013-10-21 12:06:00,60.2,42.0,30.00,SW,227,5.0,17.0,51,0.00,,CLR,0.00,VWS V14.01,2013-10-21 16:06:00,
2013-10-21 12:12:00,60.4,42.7,30.00,SSW,195,0.0,17.0,52,0.00,,CLR,0.00,VWS V14.01,2013-10-21 16:12:00,
2013-10-21 12:15:00,58.0,41.9,30.02,SSW,209,0.0,17.0,55,0.00,,CLR,0.00,VWS V14.01,2013-10-21 16:15:00,
2013-10-21 12:17:00,60.9,43.2,29.99,SW,216,3.0,13.0,52,0.00,,CLR,0.00,VWS V14.01,2013-10-21 16:17:00,
2013-10-21 12:22:00,61.3,43.0,29.99,South,171,7.0,14.0,51,0.00,,CLR,0.00,VWS V14.01,2013-10-21 16:22:00,
2013-10-21 12:26:00,61.8,43.0,29.99,SSW,200,7.0,14.0,50,0.00,,CLR,0.00,VWS V14.01,2013-10-21 16:26:00,
2013-10-21 12:30:00,58.7,42.1,30.01,WSW,243,6.0,18.0,54,0.00,,CLR,0.00,VWS V14.01,2013-10-21 16:30:00,
2013-10-21 12:31:00,62.0,42.6,29.99,SW,226,10.0,15.0,49,0.00,,CLR,0.00,VWS V14.01,2013-10-21 16:31:00,
2013-10-21 12:36:00,62.0,42.6,29.99,SSW,193,4.0,15.0,49,0.00,,CLR,0.00,VWS V14.01,2013-10-21 16:36:00,
2013-10-21 12:41:00,62.3,43.4,29.99,South,174,1.0,13.0,50,0.00,,CLR,0.00,VWS V14.01,2013-10-21 16:41:00,
2013-10-21 12:45:00,59.6,43.4,30.00,SW,220,7.0,14.0,55,0.00,,CLR,0.00,VWS V14.01,2013-10-21 16:45:00,
2013-10-21 12:46:00,62.4,42.5,29.98,SSW,192,12.0,14.0,48,0.00,,CLR,0.00,VWS V14.01,2013-10-21 16:46:00,
2013-10-21 12:51:00,62.1,41.7,29.98,South,182,12.0,16.0,47,0.00,,CLR,0.00,VWS V14.01,2013-10-21 16:51:00,
2013-10-21 12:56:00,62.4,42.5,29.98,SSW,206,6.0,16.0,48,0.00,,CLR,0.00,VWS V14.01,2013-10-21 16:56:00,
2013-10-21 13:00:00,60.1,41.9,30.00,SW,220,6.0,16.0,51,0.00,,CLR,0.00,VWS V14.01,2013-10-21 17:00:00,
2013-10-21 13:01:00,62.4,42.5,29.98,SW,220,8.0,18.0,48,0.00,,CLR,0.00,VWS V14.01,2013-10-21 17:01:00,
2013-10-21 13:06:00,62.3,41.3,29.98,SSW,196,2.0,19.0,46,0.00,,CLR,0.00,VWS V14.01,2013-10-21 17:06:00,
2013-10-21 13:11:00,62.6,41.5,29.98,SSW,198,8.0,12.0,46,0.00,,CLR,0.00,VWS V14.01,2013-10-21 17:11:00,
2013-10-21 13:15:00,60.7,42.5,29.99,SSW,198,3.0,14.0,51,0.00,,CLR,0.00,VWS V14.01,2013-10-21 17:15:00,
2013-10-21 13:16:00,63.1,42.0,29.97,ESE,117,6.0,12.0,46,0.00,,CLR,0.00,VWS V14.01,2013-10-21 17:16:00,
2013-10-21 13:21:00,63.2,43.2,29.97,SSE,164,0.0,12.0,48,0.00,,CLR,0.00,VWS V14.01,2013-10-21 17:21:00,
2013-10-21 13:26:00,63.4,41.7,29.97,SSW,200,15.0,19.0,45,0.00,,CLR,0.00,VWS V14.01,2013-10-21 17:26:00,
2013-10-21 13:30:00,62.0,43.7,29.99,SSW,208,8.0,14.0,51,0.00,,CLR,0.00,VWS V14.01,2013-10-21 17:30:00,
2013-10-21 13:31:00,63.2,42.1,29.96,SW,216,0.0,19.0,46,0.00,,CLR,0.00,VWS V14.01,2013-10-21 17:31:00,
2013-10-21 13:36:00,63.2,41.5,29.96,SSW,200,3.0,20.0,45,0.00,,CLR,0.00,VWS V14.01,2013-10-21 17:36:00,
2013-10-21 13:41:00,63.4,42.8,29.96,South,174,0.0,20.0,47,0.00,,CLR,0.00,VWS V14.01,2013-10-21 17:41:00,
2013-10-21 13:45:00,62.6,43.7,29.98,SW,220,6.0,13.0,50,0.00,,CLR,0.00,VWS V14.01,2013-10-21 17:45:00,
2013-10-21 13:46:00,63.7,42.0,29.96,South,191,13.0,13.0,45,0.00,,CLR,0.00,VWS V14.01,2013-10-21 17:46:00,
2013-10-21 13:51:00,63.9,42.7,29.96,West,264,5.0,13.0,46,0.00,,CLR,0.00,VWS V14.01,2013-10-21 17:51:00,
2013-10-21 13:56:00,64.0,42.3,29.96,SSW,196,3.0,14.0,45,0.00,,CLR,0.00,VWS V14.01,2013-10-21 17:56:00,
2013-10-21 14:00:00,62.6,42.1,29.98,WSW,246,11.0,16.0,47,0.00,,CLR,0.00,VWS V14.01,2013-10-21 18:00:00,
2013-10-21 14:01:00,64.0,42.3,29.95,SW,226,0.0,14.0,45,0.00,,CLR,0.00,VWS V14.01,2013-10-21 18:01:00,
2013-10-21 14:06:00,64.2,43.0,29.95,SSW,209,10.0,12.0,46,0.00,,CLR,0.00,VWS V14.01,2013-10-21 18:06:00,
2013-10-21 14:11:00,64.3,43.1,29.95,SSW,200,5.0,16.0,46,0.00,,CLR,0.00,VWS V14.01,2013-10-21 18:11:00,
2013-10-21 14:15:00,62.9,43.5,29.97,SW,227,11.0,11.0,49,0.00,,CLR,0.00,VWS V14.01,2013-10-21 18:15:00,
2013-10-21 14:16:00,64.3,43.1,29.94,SSW,203,2.0,24.0,46,0.00,,CLR,0.00,VWS V14.01,2013-10-21 18:16:00,
2013-10-21 14:21:00,64.7,42.3,29.94,SW,229,5.0,12.0,44,0.00,,CLR,0.00,VWS V14.01,2013-10-21 18:21:00,
2013-10-21 14:26:00,65.0,42.0,29.94,SSW,203,11.0,14.0,43,0.00,,CLR,0.00,VWS V14.01,2013-10-21 18:26:00,
2013-10-21 14:30:00,63.1,42.0,29.96,SSW,203,5.0,19.0,46,0.00,,CLR,0.00,VWS V14.01,2013-10-21 18:30:00,
2013-10-21 14:31:00,65.0,42.6,29.94,SSW,202,7.0,14.0,44,0.00,,CLR,0.00,VWS V14.01,2013-10-21 18:31:00,
2013-10-21 14:36:00,65.2,43.9,29.94,South,185,10.0,18.0,46,0.00,,CLR,0.00,VWS V14.01,2013-10-21 18:36:00,
2013-10-21 14:41:00,65.2,43.3,29.94,SE,145,0.0,18.0,45,0.00,,CLR,0.00,VWS V14.01,2013-10-21 18:41:00,
2013-10-21 14:45:00,63.7,42.0,29.96,SSW,212,4.0,13.0,45,0.00,,CLR,0.00,VWS V14.01,2013-10-21 18:45:00,
2013-10-21 14:46:00,65.6,43.1,29.92,SSW,206,7.0,16.0,44,0.00,,CLR,0.00,VWS V14.01,2013-10-21 18:46:00,
2013-10-21 14:52:00,66.3,44.3,29.92,South,185,0.0,11.0,45,0.00,,CLR,0.00,VWS V14.01,2013-10-21 18:52:00,
2013-10-21 14:57:00,66.1,43.6,29.92,SSW,196,4.0,14.0,44,0.00,,CLR,0.00,VWS V14.01,2013-10-21 18:57:00,
2013-10-21 15:00:00,64.0,42.3,29.95,SW,223,5.0,14.0,45,0.00,,CLR,0.00,VWS V14.01,2013-10-21 19:00:00,
2013-10-21 15:02:00,66.4,43.8,29.92,SSE,164,2.0,14.0,44,0.00,,CLR,0.00,VWS V14.01,2013-10-21 19:02:00,
2013-10-21 15:07:00,66.3,43.2,29.92,SSW,198,0.0,14.0,43,0.00,,CLR,0.00,VWS V14.01,2013-10-21 19:07:00,
2013-10-21 15:11:00,66.4,42.6,29.92,SSE,157,2.0,14.0,42,0.00,,CLR,0.00,VWS V14.01,2013-10-21 19:11:00,
2013-10-21 15:15:00,64.3,43.7,29.94,South,179,0.0,24.0,47,0.00,,CLR,0.00,VWS V14.01,2013-10-21 19:15:00,
2013-10-21 15:16:00,66.3,42.5,29.91,South,182,5.0,14.0,42,0.00,,CLR,0.00,VWS V14.01,2013-10-21 19:16:00,
2013-10-21 15:21:00,66.1,41.1,29.91,SSE,152,2.0,14.0,40,0.00,,CLR,0.00,VWS V14.01,2013-10-21 19:21:00,
2013-10-21 15:26:00,66.1,41.1,29.91,SSW,206,0.0,12.0,40,0.00,,CLR,0.00,VWS V14.01,2013-10-21 19:26:00,
2013-10-21 15:30:00,65.0,42.6,29.94,South,178,2.0,14.0,44,0.00,,CLR,0.00,VWS V14.01,2013-10-21 19:30:00,
2013-10-21 15:31:00,66.6,40.2,29.91,WSW,237,11.0,13.0,38,0.00,,CLR,0.00,VWS V14.01,2013-10-21 19:31:00,
2013-10-21 15:36:00,66.6,40.9,29.91,South,186,10.0,17.0,39,0.00,,CLR,0.00,VWS V14.01,2013-10-21 19:36:00,
2013-10-21 15:41:00,66.4,39.4,29.91,SW,219,6.0,17.0,37,0.00,,CLR,0.00,VWS V14.01,2013-10-21 19:41:00,
2013-10-21 15:45:00,65.5,42.4,29.92,SSW,196,8.0,18.0,43,0.00,,CLR,0.00,VWS V14.01,2013-10-21 19:45:00,
2013-10-21 15:46:00,66.9,41.8,29.90,SW,216,6.0,12.0,40,0.00,,CLR,0.00,VWS V14.01,2013-10-21 19:46:00,
2013-10-21 15:51:00,66.8,39.7,29.90,SW,230,6.0,14.0,37,0.00,,CLR,0.00,VWS V14.01,2013-10-21 19:51:00,
2013-10-21 15:56:00,66.9,40.5,29.90,SSE,148,5.0,17.0,38,0.00,,CLR,0.00,VWS V14.01,2013-10-21 19:56:00,
2013-10-21 16:00:00,66.3,41.9,29.92,SSW,210,0.0,14.0,41,0.00,,CLR,0.00,VWS V14.01,2013-10-21 20:00:00,
2013-10-21 16:01:00,66.4,39.4,29.90,SSW,202,7.0,17.0,37,0.00,,CLR,0.00,VWS V14.01,2013-10-21 20:01:00,
2013-10-21 16:06:00,66.3,41.3,29.90,SW,230,7.0,14.0,40,0.00,,CLR,0.00,VWS V14.01,2013-10-21 20:06:00,
2013-10-21 16:11:00,66.4,39.4,29.90,SSE,165,0.0,14.0,37,0.00,,CLR,0.00,VWS V14.01,2013-10-21 20:11:00,
2013-10-21 16:15:00,66.3,41.9,29.91,SSW,196,11.0,13.0,41,0.00,,CLR,0.00,VWS V14.01,2013-10-21 20:15:00,
2013-10-21 16:16:00,66.4,38.7,29.90,SSW,202,0.0,14.0,36,0.00,,CLR,0.00,VWS V14.01,2013-10-21 20:16:00,
2013-10-21 16:21:00,66.3,39.3,29.90,WSW,239,14.0,16.0,37,0.00,,CLR,0.00,VWS V14.01,2013-10-21 20:21:00,
2013-10-21 16:26:00,66.1,40.5,29.90,SSW,205,12.0,16.0,39,0.00,,CLR,0.00,VWS V14.01,2013-10-21 20:26:00,
2013-10-21 16:30:00,66.4,42.0,29.91,SW,217,10.0,13.0,41,0.00,,CLR,0.00,VWS V14.01,2013-10-21 20:30:00,
2013-10-21 16:31:00,65.8,39.5,29.90,SSW,202,3.0,14.0,38,0.00,,CLR,0.00,VWS V14.01,2013-10-21 20:31:00,
2013-10-21 16:36:00,65.6,39.3,29.90,SSW,198,1.0,13.0,38,0.00,,CLR,0.00,VWS V14.01,2013-10-21 20:36:00,
2013-10-21 16:41:00,65.6,39.3,29.90,SSW,202,1.0,13.0,38,0.00,,CLR,0.00,VWS V14.01,2013-10-21 20:41:00,
2013-10-21 16:45:00,66.8,40.4,29.90,SSW,202,0.0,14.0,38,0.00,,CLR,0.00,VWS V14.01,2013-10-21 20:45:00,
2013-10-21 16:46:00,66.1,39.1,29.89,SW,222,5.0,16.0,37,0.00,,CLR,0.00,VWS V14.01,2013-10-21 20:46:00,
2013-10-21 16:51:00,66.0,39.0,29.89,SSW,213,10.0,17.0,37,0.00,,CLR,0.00,VWS V14.01,2013-10-21 20:51:00,
2013-10-21 16:56:00,65.3,37.0,29.89,SSW,203,7.0,17.0,35,0.00,,CLR,0.00,VWS V14.01,2013-10-21 20:56:00,
2013-10-21 17:00:00,66.8,39.7,29.90,South,188,12.0,17.0,37,0.00,,CLR,0.00,VWS V14.01,2013-10-21 21:00:00,
2013-10-21 17:01:00,64.7,37.2,29.90,SW,215,6.0,17.0,36,0.00,,OVC100,0.00,VWS V14.01,2013-10-21 21:01:00,
2013-10-21 17:06:00,64.5,37.7,29.90,SSW,199,14.0,14.0,37,0.00,,OVC100,0.00,VWS V14.01,2013-10-21 21:06:00,
2013-10-21 17:11:00,64.3,38.2,29.90,SW,220,0.0,14.0,38,0.00,,OVC100,0.00,VWS V14.01,2013-10-21 21:11:00,
2013-10-21 17:15:00,66.4,38.7,29.90,SSW,208,3.0,14.0,36,0.00,,CLR,0.00,VWS V14.01,2013-10-21 21:15:00,
2013-10-21 17:16:00,64.3,39.5,29.90,SW,226,11.0,12.0,40,0.00,,OVC100,0.00,VWS V14.01,2013-10-21 21:16:00,
2013-10-21 17:21:00,64.2,39.4,29.90,SSW,213,1.0,11.0,40,0.00,,OVC100,0.00,VWS V14.01,2013-10-21 21:21:00,
2013-10-21 17:26:00,64.0,39.2,29.90,SW,224,3.0,13.0,40,0.00,,OVC100,0.00,VWS V14.01,2013-10-21 21:26:00,
2013-10-21 17:30:00,66.0,38.3,29.90,SW,224,0.0,14.0,36,0.00,,CLR,0.00,VWS V14.01,2013-10-21 21:30:00,
2013-10-21 17:31:00,63.9,39.1,29.90,SSW,202,7.0,12.0,40,0.00,,OVC100,0.00,VWS V14.01,2013-10-21 21:31:00,
2013-10-21 17:36:00,63.9,39.1,29.90,SSW,193,0.0,13.0,40,0.00,,OVC100,0.00,VWS V14.01,2013-10-21 21:36:00,
2013-10-21 17:41:00,63.5,38.8,29.90,South,185,0.0,13.0,40,0.00,,OVC100,0.00,VWS V14.01,2013-10-21 21:41:00,
2013-10-21 17:45:00,66.0,38.3,29.89,SSW,192,5.0,16.0,36,0.00,,CLR,0.00,VWS V14.01,2013-10-21 21:45:00,
2013-10-21 17:46:00,63.4,39.9,29.91,SSW,206,4.0,13.0,42,0.00,,OVC100,0.00,VWS V14.01,2013-10-21 21:46:00,
2013-10-21 17:51:00,63.2,40.3,29.91,SW,219,0.0,10.0,43,0.00,,OVC100,0.00,VWS V14.01,2013-10-21 21:51:00,
2013-10-21 17:56:00,63.1,40.3,29.91,SSW,213,0.0,10.0,43,0.00,,OVC100,0.00,VWS V14.01,2013-10-21 21:56:00,
2013-10-21 18:00:00,65.0,37.4,29.90,SW,215,6.0,17.0,36,0.00,,CLR,0.00,VWS V14.01,2013-10-21 22:00:00,
2013-10-21 18:01:00,62.9,40.7,29.91,SSW,205,0.0,10.0,44,0.00,,OVC110,0.00,VWS V14.01,2013-10-21 22:01:00,
2013-10-21 18:06:00,62.7,41.6,29.91,SSW,210,0.0,5.0,46,0.00,,OVC110,0.00,VWS V14.01,2013-10-21 22:06:00,
2013-10-21 18:11:00,62.6,39.8,29.91,SSW,209,1.0,11.0,43,0.00,,OVC110,0.00,VWS V14.01,2013-10-21 22:11:00,
2013-10-21 18:15:00,64.3,38.2,29.90,SW,222,0.0,14.0,38,0.00,,CLR,0.00,VWS V14.01,2013-10-21 22:15:00,
2013-10-21 18:16:00,62.4,41.4,29.90,SW,215,0.0,11.0,46,0.00,,OVC110,0.00,VWS V14.01,2013-10-21 22:16:00,
2013-10-21 18:21:00,62.1,41.1,29.90,SSW,212,0.0,3.0,46,0.00,,OVC110,0.00,VWS V14.01,2013-10-21 22:21:00,
2013-10-21 18:26:00,61.8,40.8,29.90,South,181,0.0,8.0,46,0.00,,OVC110,0.00,VWS V14.01,2013-10-21 22:26:00,
2013-10-21 18:30:00,64.0,38.6,29.90,South,186,5.0,13.0,39,0.00,,CLR,0.00,VWS V14.01,2013-10-21 22:30:00,
2013-10-21 18:31:00,61.6,40.6,29.90,SSE,164,0.0,8.0,46,0.00,,OVC110,0.00,VWS V14.01,2013-10-21 22:31:00,
2013-10-21 18:36:00,61.5,40.5,29.90,SSW,195,0.0,7.0,46,0.00,,OVC110,0.00,VWS V14.01,2013-10-21 22:36:00,
2013-10-21 18:41:00,61.3,40.4,29.90,SSW,195,0.0,7.0,46,0.00,,OVC110,0.00,VWS V14.01,2013-10-21 22:41:00,
2013-10-21 18:45:00,63.4,39.9,29.91,SSW,202,0.0,13.0,42,0.00,,CLR,0.00,VWS V14.01,2013-10-21 22:45:00,
2013-10-21 18:46:00,61.2,40.8,29.91,SSW,193,0.0,7.0,47,0.00,,OVC110,0.00,VWS V14.01,2013-10-21 22:46:00,
2013-10-21 18:51:00,61.2,40.3,29.91,SSW,199,0.0,7.0,46,0.00,,OVC110,0.00,VWS V14.01,2013-10-21 22:51:00,
2013-10-21 18:56:00,61.0,40.7,29.91,SSW,199,0.0,7.0,47,0.00,,OVC110,0.00,VWS V14.01,2013-10-21 22:56:00,
2013-10-21 19:00:00,62.9,40.7,29.91,SSW,205,0.0,10.0,44,0.00,,CLR,0.00,VWS V14.01,2013-10-21 23:00:00,
2013-10-21 19:01:00,60.9,40.5,29.91,SSW,199,0.0,0.0,47,0.00,,OVC085,0.00,VWS V14.01,2013-10-21 23:01:00,
2013-10-21 19:07:00,60.7,40.4,29.91,SSW,199,0.0,3.0,47,0.00,,OVC085,0.00,VWS V14.01,2013-10-21 23:07:00,
2013-10-21 19:12:00,60.5,41.3,29.91,SSW,199,0.0,5.0,49,0.00,,OVC085,0.00,VWS V14.01,2013-10-21 23:12:00,
2013-10-21 19:15:00,62.4,40.8,29.90,SW,215,0.0,11.0,45,0.00,,CLR,0.00,VWS V14.01,2013-10-21 23:15:00,
2013-10-21 19:17:00,60.4,40.6,29.91,SSW,199,0.0,5.0,48,0.00,,OVC085,0.00,VWS V14.01,2013-10-21 23:17:00,
2013-10-21 19:22:00,60.2,40.5,29.91,SSW,199,0.0,3.0,48,0.00,,OVC085,0.00,VWS V14.01,2013-10-21 23:22:00,
2013-10-21 19:27:00,60.2,40.5,29.91,SSW,202,0.0,5.0,48,0.00,,OVC085,0.00,VWS V14.01,2013-10-21 23:27:00,
2013-10-21 19:30:00,61.6,41.2,29.90,SSW,208,1.0,8.0,47,0.00,,CLR,0.00,VWS V14.01,2013-10-21 23:30:00,
2013-10-21 19:32:00,60.2,41.0,29.91,SW,234,0.0,6.0,49,0.00,,OVC085,0.00,VWS V14.01,2013-10-21 23:32:00,
2013-10-21 19:37:00,60.1,41.4,29.91,SW,234,0.0,2.0,50,0.00,,OVC085,0.00,VWS V14.01,2013-10-21 23:37:00,
2013-10-21 19:42:00,59.9,41.2,29.91,SW,230,1.0,3.0,50,0.00,,OVC085,0.00,VWS V14.01,2013-10-21 23:42:00,
2013-10-21 19:45:00,61.3,40.9,29.91,SSW,193,0.0,7.0,47,0.00,,CLR,0.00,VWS V14.01,2013-10-21 23:45:00,
2013-10-21 19:47:00,59.8,41.1,29.91,South,182,2.0,4.0,50,0.00,,OVC085,0.00,VWS V14.01,2013-10-21 23:47:00,
2013-10-21 19:52:00,59.6,41.5,29.91,SSW,206,0.0,5.0,51,0.00,,OVC085,0.00,VWS V14.01,2013-10-21 23:52:00,
2013-10-21 19:57:00,59.6,40.4,29.91,SW,224,0.0,7.0,49,0.00,,OVC085,0.00,VWS V14.01,2013-10-21 23:57:00,
2013-10-21 20:00:00,60.9,40.6,29.91,SSW,199,0.0,2.0,47,0.00,,CLR,0.00,VWS V14.01,2013-10-22 00:00:00,
2013-10-21 20:02:00,59.6,41.0,29.91,SSW,210,3.0,7.0,50,0.00,,OVC080,0.00,VWS V14.01,2013-10-22 00:02:00,
2013-10-21 20:07:00,59.6,41.0,29.91,SSW,208,0.0,6.0,50,0.00,,OVC080,0.00,VWS V14.01,2013-10-22 00:07:00,
2013-10-21 20:12:00,59.6,40.4,29.91,SSW,208,0.0,5.0,49,0.00,,OVC080,0.00,VWS V14.01,2013-10-22 00:12:00,
2013-10-21 20:15:00,60.5,40.7,29.91,SSW,199,0.0,5.0,48,0.00,,CLR,0.00,VWS V14.01,2013-10-22 00:15:00,
2013-10-21 20:17:00,59.6,41.0,29.90,SW,223,0.0,5.0,50,0.00,,OVC080,0.00,VWS V14.01,2013-10-22 00:17:00,
2013-10-21 20:22:00,59.6,40.4,29.90,SW,227,0.0,8.0,49,0.00,,OVC080,0.00,VWS V14.01,2013-10-22 00:22:00,
2013-10-21 20:27:00,59.8,40.1,29.90,SSW,208,5.0,8.0,48,0.00,,OVC080,0.00,VWS V14.01,2013-10-22 00:27:00,
2013-10-21 20:30:00,60.2,40.5,29.91,SW,234,0.0,6.0,48,0.00,,CLR,0.00,VWS V14.01,2013-10-22 00:30:00,
2013-10-21 20:32:00,59.8,40.1,29.90,SW,223,5.0,11.0,48,0.00,,OVC080,0.00,VWS V14.01,2013-10-22 00:32:00,
2013-10-21 20:37:00,59.9,40.2,29.90,SW,216,3.0,11.0,48,0.00,,OVC080,0.00,VWS V14.01,2013-10-22 00:37:00,
2013-10-21 20:42:00,59.9,40.2,29.90,SSW,209,0.0,8.0,48,0.00,,OVC080,0.00,VWS V14.01,2013-10-22 00:42:00,
2013-10-21 20:45:00,59.8,41.1,29.91,South,182,0.0,3.0,50,0.00,,CLR,0.00,VWS V14.01,2013-10-22 00:45:00,
2013-10-21 20:47:00,59.9,40.2,29.90,SSW,206,0.0,7.0,48,0.00,,OVC080,0.00,VWS V14.01,2013-10-22 00:47:00,
2013-10-21 20:52:00,59.9,40.2,29.90,SSW,206,0.0,10.0,48,0.00,,OVC080,0.00,VWS V14.01,2013-10-22 00:52:00,
2013-10-21 20:57:00,59.9,40.7,29.90,WSW,246,7.0,10.0,49,0.00,,OVC080,0.00,VWS V14.01,2013-10-22 00:57:00,
2013-10-21 21:00:00,59.6,40.4,29.91,SW,222,0.0,7.0,49,0.00,,CLR,0.00,VWS V14.01,2013-10-22 01:00:00,
2013-10-21 21:02:00,59.9,40.7,29.89,SSW,202,0.0,8.0,49,0.00,,OVC080,0.00,VWS V14.01,2013-10-22 01:02:00,
2013-10-21 21:07:00,59.9,41.8,29.89,SSW,203,0.0,7.0,51,0.00,,OVC080,0.00,VWS V14.01,2013-10-22 01:07:00,
2013-10-21 21:12:00,59.8,40.6,29.89,SW,229,0.0,16.0,49,0.00,,OVC080,0.00,VWS V14.01,2013-10-22 01:12:00,
2013-10-21 21:15:00,59.6,40.4,29.90,SW,223,1.0,5.0,49,0.00,,CLR,0.00,VWS V14.01,2013-10-22 01:15:00,
2013-10-21 21:17:00,59.8,40.6,29.88,SSW,213,0.0,8.0,49,0.00,,OVC080,0.00,VWS V14.01,2013-10-22 01:17:00,
2013-10-21 21:22:00,59.6,41.0,29.88,WSW,241,0.0,6.0,50,0.00,,OVC080,0.00,VWS V14.01,2013-10-22 01:22:00,
2013-10-21 21:27:00,59.6,40.4,29.88,SW,220,0.0,9.0,49,0.00,,OVC080,0.00,VWS V14.01,2013-10-22 01:27:00,
2013-10-21 21:30:00,59.8,40.6,29.90,SW,220,0.0,8.0,49,0.00,,CLR,0.00,VWS V14.01,2013-10-22 01:30:00,
2013-10-21 21:32:00,59.6,40.4,29.89,SSW,212,0.0,10.0,49,0.00,,OVC080,0.00,VWS V14.01,2013-10-22 01:32:00,
2013-10-21 21:37:00,59.6,40.4,29.89,SSW,208,4.0,10.0,49,0.00,,OVC080,0.00,VWS V14.01,2013-10-22 01:37:00,
2013-10-21 21:42:00,59.6,40.4,29.89,SSW,212,0.0,7.0,49,0.00,,OVC080,0.00,VWS V14.01,2013-10-22 01:42:00,
2013-10-21 21:45:00,59.9,40.7,29.90,SSW,202,3.0,8.0,49,0.00,,CLR,0.00,VWS V14.01,2013-10-22 01:45:00,
2013-10-21 21:47:00,59.5,40.9,29.89,SSW,192,0.0,7.0,50,0.00,,OVC080,0.00,VWS V14.01,2013-10-22 01:47:00,
2013-10-21 21:52:00,59.5,40.3,29.89,SW,215,4.0,6.0,49,0.00,,OVC080,0.00,VWS V14.01,2013-10-22 01:52:00,
2013-10-21 21:54:00,59.3,40.7,29.89,South,191,0.0,6.0,50,0.00,,OVC080,0.00,VWS V14.01,2013-10-22 01:54:00,
2013-10-21 21:59:00,59.3,41.2,29.89,South,188,0.0,10.0,51,0.00,,OVC080,0.00,VWS V14.01,2013-10-22 01:59:00,
2013-10-21 22:00:00,59.9,40.2,29.89,SW,222,0.0,10.0,48,0.00,,CLR,0.00,VWS V14.01,2013-10-22 02:00:00,
2013-10-21 22:04:00,59.2,40.6,29.89,WSW,240,0.0,10.0,50,0.00,,OVC080,0.00,VWS V14.01,2013-10-22 02:04:00,
2013-10-21 22:09:00,59.2,40.6,29.89,SSW,209,0.0,7.0,50,0.00,,OVC080,0.00,VWS V14.01,2013-10-22 02:09:00,
2013-10-21 22:14:00,59.3,40.7,29.88,SSW,212,0.0,7.0,50,0.00,,OVC080,0.00,VWS V14.01,2013-10-22 02:14:00,
2013-10-21 22:15:00,59.8,40.6,29.88,WSW,247,0.0,16.0,49,0.00,,CLR,0.00,VWS V14.01,2013-10-22 02:15:00,
2013-10-21 22:19:00,59.2,41.1,29.88,SSW,203,3.0,7.0,51,0.00,,OVC080,0.00,VWS V14.01,2013-10-22 02:19:00,
2013-10-21 22:24:00,59.2,41.1,29.88,SW,223,0.0,7.0,51,0.00,,OVC080,0.00,VWS V14.01,2013-10-22 02:24:00,
2013-10-21 22:29:00,59.0,40.9,29.88,WSW,240,0.0,7.0,51,0.00,,OVC080,0.00,VWS V14.01,2013-10-22 02:29:00,
2013-10-21 22:30:00,59.5,40.9,29.89,SSW,212,2.0,9.0,50,0.00,,CLR,0.00,VWS V14.01,2013-10-22 02:30:00,
2013-10-21 22:34:00,58.9,41.3,29.88,South,181,3.0,5.0,52,0.00,,OVC080,0.00,VWS V14.01,2013-10-22 02:34:00,
2013-10-21 22:39:00,58.9,41.3,29.88,SW,230,0.0,6.0,52,0.00,,OVC080,0.00,VWS V14.01,2013-10-22 02:39:00,
2013-10-21 22:44:00,58.9,41.3,29.87,SW,227,0.0,6.0,52,0.00,,OVC080,0.00,VWS V14.01,2013-10-22 02:44:00,
2013-10-21 22:45:00,59.5,40.9,29.89,SSW,203,0.0,7.0,50,0.00,,CLR,0.00,VWS V14.01,2013-10-22 02:45:00,
2013-10-21 22:49:00,58.7,41.6,29.87,South,191,0.0,3.0,53,0.00,,OVC080,0.00,VWS V14.01,2013-10-22 02:49:00,
2013-10-21 22:54:00,58.7,41.1,29.87,SSW,202,0.0,6.0,52,0.00,,OVC080,0.00,VWS V14.01,2013-10-22 02:54:00,
2013-10-21 22:59:00,58.7,41.6,29.87,SSW,212,0.0,5.0,53,0.00,,OVC080,0.00,VWS V14.01,2013-10-22 02:59:00,
2013-10-21 23:00:00,59.3,41.2,29.89,SSW,196,0.0,10.0,51,0.00,,CLR,0.00,VWS V14.01,2013-10-22 03:00:00,
2013-10-21 23:04:00,58.6,42.0,29.87,SSW,208,0.0,5.0,54,0.00,,OVC075,0.00,VWS V14.01,2013-10-22 03:04:00,
2013-10-21 23:09:00,58.4,41.3,29.87,SSW,195,0.0,5.0,53,0.00,,OVC075,0.00,VWS V14.01,2013-10-22 03:09:00,
2013-10-21 23:14:00,58.4,41.3,29.87,WSW,239,0.0,6.0,53,0.00,,OVC075,0.00,VWS V14.01,2013-10-22 03:14:00,
2013-10-21 23:15:00,59.3,40.7,29.88,South,185,0.0,7.0,50,0.00,,CLR,0.00,VWS V14.01,2013-10-22 03:15:00,
2013-10-21 23:19:00,58.4,41.3,29.87,SSW,205,0.0,7.0,53,0.00,,OVC075,0.00,VWS V14.01,2013-10-22 03:19:00,
2013-10-21 23:24:00,58.4,40.9,29.87,WSW,243,0.0,7.0,52,0.00,,OVC075,0.00,VWS V14.01,2013-10-22 03:24:00,
2013-10-21 23:29:00,58.6,41.5,29.86,WSW,241,0.0,7.0,53,0.00,,OVC075,0.00,VWS V14.01,2013-10-22 03:29:00,
2013-10-21 23:30:00,59.0,41.4,29.88,WSW,240,0.0,7.0,52,0.00,,CLR,0.00,VWS V14.01,2013-10-22 03:30:00,
2013-10-21 23:34:00,58.4,41.3,29.86,SSW,210,0.0,7.0,53,0.00,,OVC075,0.00,VWS V14.01,2013-10-22 03:34:00,
2013-10-21 23:39:00,58.4,41.3,29.86,West,267,3.0,7.0,53,0.00,,OVC075,0.00,VWS V14.01,2013-10-22 03:39:00,
2013-10-21 23:44:00,58.4,41.3,29.87,NW,308,2.0,7.0,53,0.00,,OVC075,0.00,VWS V14.01,2013-10-22 03:44:00,
2013-10-21 23:45:00,58.9,41.3,29.87,South,191,0.0,6.0,52,0.00,,CLR,0.00,VWS V14.01,2013-10-22 03:45:00,
2013-10-21 23:49:00,58.3,42.2,29.87,WNW,301,3.0,7.0,55,0.00,,OVC075,0.00,VWS V14.01,2013-10-22 03:49:00,
2013-10-21 23:54:00,57.6,44.7,29.87,NW,326,3.0,11.0,62,0.00,,OVC075,0.00,VWS V14.01,2013-10-22 03:54:00,
2013-10-21 23:59:00,57.2,45.6,29.88,NW,320,0.0,11.0,65,0.00,,OVC075,0.00,VWS V14.01,2013-10-22 03:59:00,